Regional Weather Roundup
Issued by NWS

Home | Current Version | Previous Version | Graphics & Text | Print | Product List | Glossary On
Versions: 1 2 3 4 5 6 7 8 9 10 11 12 13 14 15 16 17 18 19 20 21 22 23 24 25 26 27 28 29 30 31 32 33 34 35 36 37 38 39 40 41 42 43 44 45 46 47 48 49 50
058
ASUS45 KTFX 231510
RWRMT
MONTANA REGIONAL WEATHER ROUNDUP
NATIONAL WEATHER SERVICE GREAT FALLS MT
900 AM MDT MON OCT 23 2017

NOTE: "FAIR" INDICATES FEW OR NO CLOUDS BELOW 12000 FEET WITH NO
SIGNIFICANT WEATHER AND/OR OBSTRUCTIONS TO VISIBILITY.

MTZ001>007-043-231600-
WEST OF THE DIVIDE

CITY           SKY/WX    TMP DP  RH WIND       PRES   REMARKS
KALISPELL      PTCLDY    29  27  92 W3        30.55R
MISSOULA       PTCLDY    33  32  96 CALM      30.59R
BUTTE          CLEAR     35  24  64 VRB3      30.55R
MULLAN PASS    CLEAR     30  26  85 SW3       30.55R
ANACONDA         N/A     39  25  56 CALM      30.55R
DEER LODGE       N/A     32  28  86 CALM      30.58R
EUREKA           N/A     37  28  70 MISG      30.54R
HAMILTON         N/A     39  32  75 E5        30.59R
LIBBY            N/A     28  28 100 CALM      30.57R
$$

MTZ008-052>055-231600-
SOUTHWEST MONTANA

CITY           SKY/WX    TMP DP  RH WIND       PRES   REMARKS
BOZEMAN        SUNNY     39  25  57 W9        30.52R
DILLON         CLEAR     39  23  52 SW10      30.54R
W YELLOWSTONE  SUNNY     34  21  60 SW5       30.54R
ENNIS          CLEAR     34  23  64 NE7       30.59R WCI  28
THREE FORKS      N/A     46  23  40 W10       30.45R
$$

MTZ009-010-012-014-046-048-049-054-231600-
EAST SLOPES AND CENTRAL MONTANA

CITY           SKY/WX    TMP DP  RH WIND       PRES   REMARKS
CUT BANK       CLEAR     41  23  48 W21       30.38R
GREAT FALLS    CLEAR     41  25  53 SW12      30.42R
MALMSTROM AFB  CLEAR     44  26  51 W13       30.43R
HELENA         CLEAR     46  28  49 W18G25    30.49R
BOWMANS CRNR     N/A     40  23  49 W21G29    30.42R
CHOTEAU          N/A     46  21  36 W18       30.41R
FAIRFIELD        N/A     41  22  47 W10       30.41R
POWER            N/A     34  22  62 SW5       30.41R
RAYNESFORD       N/A     44  24  46 SW20G28   30.41R
ULM              N/A     44  27  50 W18G24    30.43R
$$

MTZ011-013-016-021-045-047-050-051-231600-
NORTH CENTRAL MONTANA

CITY           SKY/WX    TMP DP  RH WIND       PRES   REMARKS
HAVRE          CLEAR     38  29  70 SW13      30.34R WCI  30
LEWISTOWN      SUNNY     37  26  64 SW8       30.41R WCI  31
N BAR RANCH      N/A     41  21  45 W12       30.40R
CHINOOK          N/A     37  27  65 CALM      30.33R
DENTON           N/A     43  25  48 W16G22    30.37R
GEYSER           N/A     37  25  63 W12       30.41R WCI  29
GRASS RANGE      N/A     41  24  50 W17       30.35R
JUDITH GAP       N/A     44  18  35 NW22G29   30.39R
STANFORD         N/A     42  23  47 W15G22    30.40R
WINIFRED         N/A     41  24  50 W7        30.38R
$$

MTZ017>020-022>027-061-062-231600-
NORTHEAST MONTANA

CITY           SKY/WX    TMP DP  RH WIND       PRES   REMARKS
GLASGOW        SUNNY     37  29  72 W7        30.25R WCI  32
JORDAN           N/A     44  28  53 W16       30.30R
SIDNEY         SUNNY     45  31  58 W18G25    30.18R
WOLF POINT     SUNNY     43  29  57 W12       30.23R
MALTA          SUNNY     43  28  56 W16       30.29R
PLENTYWOOD       N/A     39  30  70 W17       30.13R WCI  30
POPLAR           N/A     39  30  70 W15       30.21R WCI  31
$$

MTZ028>42-056>058-231600-
SOUTHCENTRAL AND SOUTHEAST MONTANA

CITY           SKY/WX    TMP DP  RH WIND       PRES   REMARKS
BAKER          SUNNY     43  31  62 W17G23    30.24R
BILLINGS       MOSUNNY   48  25  40 NW14      30.41R
LIVINGSTON     SUNNY     44  23  43 W18G28    30.46R
MILES CITY     SUNNY     45  29  53 NW16      30.29R
BIG TIMBER     SUNNY     45  23  42 W22       30.47R
FORSYTH          N/A     45  25  45 W15       30.33R
HARLOWTON        N/A     40  25  53 W18       30.42R
LAUREL           N/A     46  27  46 NW12      30.43R
$$

REGIONAL REPORTS...DAKOTAS

CITY           SKY/WX    TMP DP  RH WIND       PRES   REMARKS
WILLISTON      SUNNY     45  34  65 W13       30.13R
MINOT          CLOUDY    45  35  68 W20G30    30.03R
DICKINSON      SUNNY     45  33  63 W20       30.13R
BEACH            N/A     43  28  56 NW21      30.22R
CROSBY         PTSUNNY   41  34  75 W17       30.09R
TIOGA            N/A     39  36  87 W17       30.11R WCI  30
BISMARCK       PTSUNNY   47  37  68 NW17G31   30.07R
GRAND FORKS    CLOUDY    46  39  76 NW25G37   29.86R
FARGO          CLOUDY    47  40  76 NW24G37   29.85R
BUFFALO SD       N/A     46  28  49 NW25G36   30.16R
RAPID CITY     SUNNY     51  22  31 NW36G46   30.25R
$$

REGIONAL REPORTS...WYOMING/IDAHO/WASHINGTON

CITY           SKY/WX    TMP DP  RH WIND       PRES   REMARKS
GILLETTE       SUNNY     44  23  43 NW21G29   30.37R
SHERIDAN       MOSUNNY   44  25  47 NW13      30.40R
BUFFALO WY     SUNNY     47  16  29 NW21G32   30.39R
CODY           SUNNY     47  18  31 W7        30.46R
YELLOWSTONE LA   N/A     29  21  72 W9        30.54R WCI  20
IDAHO FALLS    PTSUNNY   35  35 100 CALM      30.58R FOG
SALMON         CLOUDY    36  28  73 S3        30.60R
BOISE          CLEAR     40  39  97 S6        30.62R
SPOKANE        PTCLDY    37  36  96 SE8       30.60R WCI  31
$$

REGIONAL REPORTS...ALBERTA

CITY           SKY/WX    TMP DP  RH WIND       PRES   REMARKS
EDMONTON       CLEAR     39  30  70 W12       30.23R WCI  32
CALGARY        PTCLDY    45  18  33 W22G31    30.32R
LETHBRIDGE     PTCLDY    43  27  52 W20       30.36R
MEDICINE HAT   MOCLDY    41  27  56 W14       30.30R
$$

REGIONAL REPORTS...SASKATCHEWAN

CITY           SKY/WX    TMP DP  RH WIND       PRES   REMARKS
SWIFT CURRENT  CLOUDY    39  25  56 W17       30.20R WCI  30
REGINA         PTSUNNY   41  34  75 NW22G28   30.07R
SASKATOON      PTCLDY    41  36  81 W15G22    30.10R
$$




USA.gov is the U.S. government's official web portal to all federal, state and local government web resources and services.